When you browse on this site, cookies collect data to enhance your experience and personalize the content and advertising you see.
Visit our Privacy Policy to learn more. By continuing to use the site, you agree to this use of cookies and data.
  • In United Kingdom
  • List of Countries
  • For 7 days
  • Water Temperature
  • Weather Map
  • Weather Widgets
  • user-avatar
    Login

    Hourly Weather Szekesfehervar

    Today, 10 April, Friday

    Time Temperature Precipitation Wind Pressure Humidity
    00:00 +13°C° 0 mm 2 mps 754 mmHg 56%
    01:00 +12°C° 0 mm 3 mps 754 mmHg 57%
    02:00 +11°C° 0 mm 3 mps 754 mmHg 59%
    03:00 +11°C° 0 mm 3 mps 754 mmHg 61%
    04:00 +10°C° 0 mm 3 mps 754 mmHg 63%
    05:00 +11°C° 0 mm 3 mps 755 mmHg 64%
    06:00 +12°C° 0 mm 3 mps 755 mmHg 65%
    07:00 +12°C° 0 mm 4 mps 755 mmHg 66%
    08:00 +14°C° 0 mm 4 mps 756 mmHg 60%
    09:00 +16°C° 0 mm 5 mps 756 mmHg 54%
    10:00 +19°C° 0 mm 5 mps 756 mmHg 49%
    11:00 +19°C° 0 mm 5 mps 756 mmHg 46%
    12:00 +19°C° 0 mm 6 mps 756 mmHg 44%
    13:00 +20°C° 0 mm 6 mps 756 mmHg 41%
    14:00 +19°C° 0 mm 6 mps 755 mmHg 42%
    15:00 +19°C° 0 mm 5 mps 755 mmHg 43%
    16:00 +19°C° 0 mm 5 mps 754 mmHg 44%
    17:00 +17°C° 0 mm 4 mps 755 mmHg 50%
    18:00 +14°C° 0 mm 4 mps 755 mmHg 56%
    19:00 +12°C° 0 mm 3 mps 755 mmHg 62%
    20:00 +11°C° 0 mm 3 mps 755 mmHg 63%
    21:00 +12°C° 0 mm 2 mps 755 mmHg 64%
    22:00 +10°C° 0 mm 2 mps 756 mmHg 65%
    23:00 +10°C° 0 mm 2 mps 756 mmHg 66%

    Tomorrow, 11 April, Saturday

    Time Temperature Precipitation Wind Pressure Humidity
    00:00 +10°C° 0 mm 1 mps 756 mmHg 66%
    01:00 +10°C° 0 mm 1 mps 756 mmHg 67%
    02:00 +9°C° 0 mm 1 mps 756 mmHg 68%
    03:00 +9°C° 0 mm 1 mps 756 mmHg 69%
    04:00 +8°C° 0 mm 1 mps 756 mmHg 70%
    05:00 +9°C° 0 mm 1 mps 756 mmHg 67%
    06:00 +10°C° 0 mm 1 mps 756 mmHg 65%
    07:00 +10°C° 0 mm 0 mps 757 mmHg 62%
    08:00 +12°C° 0 mm 1 mps 757 mmHg 56%
    09:00 +14°C° 0 mm 1 mps 757 mmHg 51%
    10:00 +16°C° 0 mm 1 mps 757 mmHg 46%
    11:00 +17°C° 0 mm 2 mps 757 mmHg 44%
    12:00 +18°C° 0 mm 2 mps 757 mmHg 42%
    13:00 +18°C° 0 mm 3 mps 757 mmHg 40%
    14:00 +18°C° 0 mm 3 mps 756 mmHg 40%
    15:00 +18°C° 0 mm 3 mps 756 mmHg 41%
    16:00 +18°C° 0 mm 3 mps 756 mmHg 41%
    17:00 +17°C° 0 mm 2 mps 756 mmHg 45%
    18:00 +15°C° 0 mm 2 mps 756 mmHg 49%
    19:00 +13°C° 0 mm 1 mps 756 mmHg 53%
    20:00 +12°C° 0 mm 1 mps 756 mmHg 55%
    21:00 +12°C° 0 mm 1 mps 756 mmHg 56%
    22:00 +11°C° 0 mm 1 mps 757 mmHg 58%
    23:00 +11°C° 0 mm 1 mps 757 mmHg 60%

    Day after tomorrow, 12 April, Sunday

    Time Temperature Precipitation Wind Pressure Humidity
    00:00 +10°C° 0 mm 1 mps 757 mmHg 63%
    01:00 +10°C° 0 mm 1 mps 756 mmHg 65%
    02:00 +10°C° 0 mm 1 mps 756 mmHg 66%
    03:00 +9°C° 0 mm 2 mps 756 mmHg 67%
    04:00 +9°C° 0 mm 2 mps 756 mmHg 67%
    05:00 +9°C° 0 mm 2 mps 756 mmHg 67%
    06:00 +10°C° 0 mm 2 mps 756 mmHg 67%
    07:00 +10°C° 0 mm 2 mps 756 mmHg 66%
    08:00 +12°C° 0 mm 3 mps 756 mmHg 62%
    09:00 +13°C° 0 mm 3 mps 755 mmHg 58%
    10:00 +16°C° 0 mm 3 mps 755 mmHg 54%
    11:00 +17°C° 0 mm 4 mps 755 mmHg 52%
    12:00 +18°C° 0 mm 4 mps 754 mmHg 50%
    13:00 +19°C° 0 mm 4 mps 754 mmHg 48%
    14:00 +19°C° 0 mm 4 mps 753 mmHg 48%
    15:00 +19°C° 0 mm 4 mps 752 mmHg 49%
    16:00 +19°C° 0 mm 4 mps 752 mmHg 49%
    17:00 +17°C° 0 mm 4 mps 751 mmHg 55%
    18:00 +16°C° 0 mm 3 mps 751 mmHg 60%
    19:00 +13°C° 0 mm 3 mps 751 mmHg 65%
    20:00 +12°C° 0 mm 3 mps 751 mmHg 65%
    21:00 +12°C° 0 mm 3 mps 750 mmHg 65%
    22:00 +11°C° 0 mm 3 mps 750 mmHg 66%
    23:00 +11°C° 0 mm 3 mps 750 mmHg 67%

    13 April, Monday

    Time Temperature Precipitation Wind Pressure Humidity
    00:00 +11°C° 0 mm 3 mps 750 mmHg 67%
    01:00 +11°C° 0 mm 3 mps 749 mmHg 68%
    02:00 +10°C° 0 mm 3 mps 749 mmHg 71%
    03:00 +10°C° 0 mm 3 mps 749 mmHg 74%
    04:00 +10°C° 0 mm 3 mps 748 mmHg 77%
    05:00 +10°C° 0 mm 3 mps 748 mmHg 75%
    06:00 +11°C° 0 mm 4 mps 748 mmHg 73%
    07:00 +12°C° 0 mm 4 mps 748 mmHg 71%
    08:00 +14°C° 0 mm 5 mps 748 mmHg 65%
    09:00 +16°C° 0 mm 5 mps 748 mmHg 59%
    10:00 +19°C° 0 mm 6 mps 747 mmHg 53%
    11:00 +19°C° 0 mm 6 mps 747 mmHg 50%
    12:00 +20°C° 0 mm 6 mps 747 mmHg 48%
    13:00 +21°C° 0 mm 5 mps 746 mmHg 45%
    14:00 +21°C° 0.2 mm 5 mps 746 mmHg 45%
    15:00 +21°C° 0.2 mm 4 mps 745 mmHg 45%
    16:00 +21°C° 0.2 mm 4 mps 745 mmHg 46%
    17:00 +19°C° 0 mm 4 mps 744 mmHg 48%
    18:00 +18°C° 0 mm 4 mps 744 mmHg 51%
    19:00 +15°C° 0 mm 4 mps 744 mmHg 53%
    20:00 +14°C° 0 mm 4 mps 744 mmHg 58%
    21:00 +13°C° 0 mm 3 mps 744 mmHg 62%
    22:00 +12°C° 0 mm 3 mps 744 mmHg 66%
    23:00 +12°C° 0 mm 3 mps 743 mmHg 65%

    14 April, Tuesday

    Time Temperature Precipitation Wind Pressure Humidity
    00:00 +11°C° 0 mm 3 mps 743 mmHg 65%
    01:00 +11°C° 0 mm 3 mps 743 mmHg 64%
    02:00 +11°C° 0 mm 4 mps 743 mmHg 70%
    03:00 +10°C° 0 mm 5 mps 743 mmHg 75%
    04:00 +10°C° 0 mm 7 mps 743 mmHg 80%
    05:00 +9°C° 0.4 mm 7 mps 744 mmHg 80%
    06:00 +7°C° 0.4 mm 8 mps 744 mmHg 80%
    07:00 +6°C° 0.4 mm 8 mps 745 mmHg 80%
    08:00 +6°C° 0.3 mm 8 mps 746 mmHg 73%
    09:00 +5°C° 0.3 mm 8 mps 747 mmHg 67%
    10:00 +5°C° 0.3 mm 8 mps 748 mmHg 60%
    11:00 +6°C° 0 mm 8 mps 749 mmHg 53%
    12:00 +7°C° 0 mm 9 mps 749 mmHg 45%
    13:00 +8°C° 0 mm 9 mps 750 mmHg 37%
    14:00 +9°C° 0 mm 8 mps 750 mmHg 38%
    15:00 +9°C° 0 mm 7 mps 750 mmHg 39%
    16:00 +8°C° 0 mm 7 mps 750 mmHg 40%
    17:00 +7°C° 0 mm 5 mps 751 mmHg 43%
    18:00 +6°C° 0 mm 4 mps 751 mmHg 46%
    19:00 +4°C° 0 mm 3 mps 751 mmHg 49%
    20:00 +5°C° 0 mm 2 mps 752 mmHg 49%
    21:00 +4°C° 0 mm 2 mps 752 mmHg 50%
    22:00 +3°C° 0 mm 2 mps 752 mmHg 50%
    23:00 +3°C° 0 mm 2 mps 752 mmHg 50%

    15 April, Wednesday

    Time Temperature Precipitation Wind Pressure Humidity
    00:00 +4°C° 0 mm 1 mps 752 mmHg 50%
    01:00 +3°C° 0 mm 1 mps 752 mmHg 49%
    02:00 +3°C° 0 mm 1 mps 752 mmHg 51%
    03:00 +3°C° 0 mm 1 mps 752 mmHg 52%
    04:00 +2°C° 0 mm 1 mps 752 mmHg 53%
    05:00 +4°C° 0 mm 1 mps 753 mmHg 52%
    06:00 +5°C° 0 mm 1 mps 753 mmHg 51%
    07:00 +6°C° 0 mm 1 mps 753 mmHg 50%
    08:00 +7°C° 0 mm 1 mps 753 mmHg 46%
    09:00 +9°C° 0 mm 1 mps 753 mmHg 42%
    10:00 +11°C° 0 mm 1 mps 753 mmHg 38%
    11:00 +12°C° 0 mm 1 mps 753 mmHg 37%
    12:00 +13°C° 0 mm 1 mps 753 mmHg 35%
    13:00 +14°C° 0 mm 1 mps 753 mmHg 33%
    14:00 +14°C° 0 mm 1 mps 752 mmHg 33%
    15:00 +14°C° 0 mm 1 mps 752 mmHg 32%
    16:00 +14°C° 0 mm 1 mps 752 mmHg 32%
    17:00 +12°C° 0 mm 1 mps 752 mmHg 37%
    18:00 +11°C° 0 mm 1 mps 752 mmHg 41%
    19:00 +9°C° 0 mm 1 mps 752 mmHg 46%
    20:00 +8°C° 0 mm 1 mps 752 mmHg 48%
    21:00 +8°C° 0 mm 1 mps 753 mmHg 49%
    22:00 +6°C° 0 mm 0 mps 753 mmHg 51%
    23:00 +7°C° 0 mm 1 mps 753 mmHg 53%
    Show more